Weather History for KADM - June, 2014

Change the Weather History Date:

Sunday, June 29, 2014

  Actual Average Record
Temperature  
Mean Temperature 85 °F -  
Max Temperature 93 °F 88 °F 102 °F (2011)
Min Temperature 77 °F 70 °F 59 °F (2006)
Cooling Degree Days 20    
Growing Degree Days 35 (Base 50)    
Moisture  
Dew Point 75 °F    
Average Humidity 80    
Maximum Humidity 94    
Minimum Humidity 52    
Precipitation  
Precipitation 0.00 in - - ()
Sea Level Pressure  
Sea Level Pressure 29.93 in    
Wind  
Wind Speed 7 mph (SSE)    
Max Wind Speed 15 mph    
Max Gust Speed 24 mph    
Visibility 10 miles    
Events      
Averages and records for this station are not official NWS values.
T = Trace of Precipitation, MM = Missing Value Source: NWS Daily Summary

Daily Weather History Graph

Daily Weather History Graph

Search for Another Location

Airport or City:

Trip Planner

Search our weather history database for the weather conditions in past years. The results will help you decide how hot, cold, wet, or windy it might be!

Date:

Astronomy

Jun. 29, 2014 Rise Set
Actual Time 6:18 AM CDT 8:44 PM CDT
Civil Twilight 5:49 AM CDT 9:13 PM CDT
Nautical Twilight 5:13 AM CDT 9:49 PM CDT
Astronomical Twilight 4:33 AM CDT 10:28 PM CDT
Moon 8:30 AM CDT (6/29) 10:13 PM CDT (6/29)
Length of Visible Light 15h 23m
Length of Day
14h 25m
Waxing Crescent, 5% of the Moon is Illuminated
Jun 29
Waxing Crescent
Jul 5
First Quarter
Jul 12
Full
Jul 18
Last Quarter
Jul 26
New

Hourly Weather History & Observations

Time (CDT) Temp. Heat Index Dew Point Humidity Pressure Visibility Wind Dir Wind Speed Gust Speed Precip Events Conditions
12:15 AM 79.0 °F - 74.1 °F 85% 29.92 in 10.0 mi SE 5.8 mph - N/A   Clear
12:35 AM 79.7 °F - 74.7 °F 84% 29.92 in 10.0 mi SE 6.9 mph - N/A   Clear
12:55 AM 79.0 °F - 74.8 °F 87% 29.92 in 10.0 mi East 3.5 mph - N/A   Scattered Clouds
1:15 AM 77.5 °F - 74.7 °F 91% 29.92 in 10.0 mi SE 4.6 mph - N/A   Scattered Clouds
1:35 AM 78.4 °F - 75.4 °F 90% 29.92 in 10.0 mi SE 5.8 mph - N/A   Scattered Clouds
1:55 AM 78.4 °F - 76.1 °F 92% 29.93 in 10.0 mi SSE 4.6 mph - N/A   Mostly Cloudy
2:15 AM 78.8 °F - 76.3 °F 92% 29.93 in 10.0 mi SSE 5.8 mph - N/A   Overcast
2:35 AM 79.2 °F - 76.5 °F 91% 29.93 in 10.0 mi SSE 8.1 mph - N/A   Overcast
2:55 AM 79.5 °F - 76.3 °F 90% 29.93 in 10.0 mi South 5.8 mph - N/A   Overcast
3:15 AM 79.0 °F - 76.1 °F 91% 29.93 in 10.0 mi SSE 5.8 mph - N/A   Mostly Cloudy
3:35 AM 78.6 °F - 76.1 °F 92% 29.93 in 10.0 mi SSE 4.6 mph - N/A   Mostly Cloudy
3:55 AM 77.9 °F - 75.7 °F 93% 29.93 in 10.0 mi SSE 5.8 mph - N/A   Mostly Cloudy
4:15 AM 77.9 °F - 75.6 °F 92% 29.93 in 10.0 mi SSE 6.9 mph - N/A   Mostly Cloudy
4:35 AM 77.7 °F - 75.6 °F 93% 29.94 in 10.0 mi SSE 5.8 mph - N/A   Mostly Cloudy
4:55 AM 77.5 °F - 75.6 °F 94% 29.94 in 10.0 mi SSE 6.9 mph - N/A   Mostly Cloudy
5:15 AM 77.4 °F - 75.2 °F 93% 29.93 in 10.0 mi SSE 5.8 mph - N/A   Mostly Cloudy
5:35 AM 77.5 °F - 74.7 °F 91% 29.93 in 10.0 mi SSE 5.8 mph - N/A   Mostly Cloudy
5:55 AM 77.2 °F - 74.3 °F 91% 29.94 in 10.0 mi SSE 6.9 mph - N/A   Mostly Cloudy
6:15 AM 77.2 °F - 74.3 °F 91% 29.94 in 10.0 mi SSE 6.9 mph - N/A   Scattered Clouds
6:35 AM 77.0 °F - 73.8 °F 90% 29.94 in 7.0 mi SSE 6.9 mph - N/A   Scattered Clouds
6:55 AM 77.0 °F - 73.4 °F 89% 29.95 in 10.0 mi North - - N/A   Clear
7:55 AM 78.8 °F - 73.4 °F 83% 29.97 in 10.0 mi SSE 4.6 mph - N/A   Mostly Cloudy
8:55 AM 80.6 °F 86.2 °F 75.2 °F 84% 29.98 in 10.0 mi South 9.2 mph - N/A   Mostly Cloudy
9:55 AM 84.2 °F 92.3 °F 75.2 °F 74% 29.99 in 10.0 mi South 8.1 mph - N/A   Mostly Cloudy
10:55 AM 87.8 °F 97.6 °F 75.2 °F 66% 29.98 in 10.0 mi South 8.1 mph - N/A   Mostly Cloudy
11:55 AM 89.6 °F 99.8 °F 75.2 °F 62% 29.97 in 7.0 mi South 11.5 mph 19.6 mph N/A   Scattered Clouds
12:55 PM 91.4 °F 102.5 °F 75.2 °F 59% 29.96 in 10.0 mi SSE 12.7 mph - N/A   Scattered Clouds
1:55 PM 91.4 °F 102.5 °F 75.2 °F 59% 29.94 in 7.0 mi South 11.5 mph 20.7 mph N/A   Clear
2:55 PM 93.2 °F 102.4 °F 73.4 °F 52% 29.93 in 7.0 mi SSE 12.7 mph 23.0 mph N/A   Clear
3:55 PM 93.2 °F 102.4 °F 73.4 °F 52% 29.92 in 7.0 mi South 15.0 mph 21.9 mph N/A   Clear
4:55 PM 93.2 °F 102.4 °F 73.4 °F 52% 29.90 in 10.0 mi South 10.4 mph 24.2 mph N/A   Clear
10:35 PM 84.4 °F 90.3 °F 72.5 °F 67% 29.91 in 10.0 mi South 8.1 mph - N/A   Scattered Clouds
10:55 PM 84.2 °F 90.3 °F 72.5 °F 68% 29.91 in 10.0 mi South 8.1 mph - N/A   Scattered Clouds
11:15 PM 84.2 °F 90.3 °F 72.5 °F 68% 29.91 in 10.0 mi South 9.2 mph - N/A   Scattered Clouds
11:35 PM 83.7 °F 89.4 °F 72.5 °F 69% 29.91 in 10.0 mi South 6.9 mph - N/A   Scattered Clouds
11:55 PM 82.2 °F 87.3 °F 72.5 °F 72% 29.91 in 10.0 mi SE 5.8 mph - N/A   Scattered Clouds